This demonstration page uses our WeatherBlox Daily Observations layout. Learn more.

Left ArrowRight Arrow

Hourly Observations for December 9, 2022

Temp ( °F °C ) Dew Point ( °F °C ) Humidity (%) Winds ( mph kmh ) Pressure ( in mb ) Visibility ( mi km ) Precip ( " mm )
12:04 am 00:04 Mostly Clear with Freezing Fog 29 -1.7 28 -2.2 96 96 W 6 9 30.26 1025 0 0 0.00 0.00
12:23 am 00:23 Mostly Clear with Freezing Fog 30 -1.1 30 -1.1 100 100 W 3 6 30.25 1024 0 0 0.00 0.00
12:55 am 00:55 Mostly Clear with Mist and Fog 29 -1.7 28 -2.2 96 96 W 3 6 30.26 1025 1 1 0.00 0.00
1:41 am 01:41 Mostly Cloudy with Mist and Fog 28 -2.2 28 -2.2 100 100 W 5 7 30.26 1025 1 2 0.00 0.00
1:53 am 01:53 Mostly Cloudy with Mist and Fog 27 -2.8 26 -3.3 96 96 W 3 6 30.20 1023 1 2 0.00 0.00
2:35 am 02:35 Partly Cloudy with Mist and Fog 28 -2.2 27 -2.8 96 96 W 7 11 30.26 1025 4 6 0.00 0.00
2:53 am 02:53 Partly Cloudy 28 -2.2 27 -2.8 96 96 W 8 13 30.20 1023 7 11 0.00 0.00
3:53 am 03:53 Mostly Clear 32 0 30 -1.1 92 92 NW 9 15 30.20 1023 10 16 0.00 0.00
4:53 am 04:53 Clear 32 0 28 -2.2 85 85 NW 12 19 30.20 1023 10 16 0.00 0.00
5:53 am 05:53 Clear 32 0 27 -2.8 81 81 WNW 10 17 30.21 1023 10 16 0.00 0.00
6:53 am 06:53 Clear 30 -1.1 26 -3.3 85 85 NW 8 13 30.22 1023 10 16 0.00 0.00
7:53 am 07:53 Partly Cloudy 31 -0.6 26 -3.3 82 82 NW 6 9 30.22 1023 10 16 0.00 0.00
8:53 am 08:53 Partly Cloudy 34 1.1 28 -2.2 79 79 NW 6 9 30.24 1024 10 16 0.00 0.00
9:53 am 09:53 Partly Cloudy 38 3.3 30 -1.1 73 73 NNW 9 15 30.25 1025 10 16 0.00 0.00
10:53 am 10:53 Partly Cloudy 41 5 30 -1.1 65 65 NNW 5 7 30.26 1025 10 16 0.00 0.00
11:53 am 11:53 Mostly Cloudy 42 5.6 31 -0.6 64 64 Calm 30.22 1024 10 16 0.00 0.00
12:53 pm 12:53 Mostly Cloudy 43 6.1 30 -1.1 60 60 WNW 3 6 30.19 1023 10 16 0.00 0.00
1:53 pm 13:53 Mostly Cloudy 47 8.3 30 -1.1 51 51 NNW 7 11 30.17 1022 10 16 0.00 0.00
2:53 pm 14:53 Mostly Cloudy 49 9.4 30 -1.1 48 48 N 3 6 30.15 1021 10 16 0.00 0.00
3:53 pm 15:53 Mostly Cloudy 49 9.4 29 -1.7 46 46 NE 5 7 30.14 1021 10 16 0.00 0.00
4:53 pm 16:53 Mostly Cloudy 45 7.2 29 -1.7 53 53 ENE 3 6 30.14 1021 10 16 0.00 0.00
5:53 pm 17:53 Mostly Cloudy 41 5 30 -1.1 65 65 SSE 6 9 30.14 1021 10 16 0.00 0.00
6:53 pm 18:53 Mostly Cloudy 42 5.6 31 -0.6 64 64 SSE 5 7 30.12 1020 10 16 0.00 0.00
7:53 pm 19:53 Cloudy 43 6.1 33 0.6 68 68 S 5 7 30.13 1020 10 16 0.00 0.00
8:53 pm 20:53 Cloudy 43 6.1 33 0.6 68 68 SSW 8 13 30.13 1020 10 16 0.00 0.00
9:53 pm 21:53 Cloudy with Light Rain 41 5 37 2.8 86 86 ESE 5 7 30.11 1020 8 13 0.04 1.02
10:53 pm 22:53 Cloudy with Light Rain 41 5 38 3.3 89 89 SSE 8 13 30.10 1019 6 10 0.01 0.25
11:53 pm 23:53 Cloudy with Light Rain 41 5 40 4.4 96 96 SSE 8 13 30.10 1019 5 8 0.08 2.03

Powered by AerisWeather